West Palm Beach, FL

9:30 PM EDT on October 19, 2019 (GMT -0400)
Palm Beach International

Weather History for KPBI - August, 2019

Change the Weather History Date:

Tuesday, August 20, 2019

  Actual Average Record
Temperature  
Mean Temperature 82 °F 83 °F  
Max Temperature 88 °F 90 °F 95 °F (1951)
Min Temperature 76 °F 76 °F 69 °F (1956)
Degree Days  
Heating Degree Days 0 0  
Month to date heating degree days 0 0  
Since 1 June heating degree days 0 0  
Since 1 July heating degree days 0 0  
Cooling Degree Days 17 18  
Month to date cooling degree days 376 360  
Year to date cooling degree days 2960 2508  
Since 1 June cooling degree days 1559 1399  
Growing Degree Days 32 (Base 50)    
Moisture  
Dew Point 73 °F    
Average Humidity 72    
Maximum Humidity 85    
Minimum Humidity 59    
Precipitation  
Precipitation 0.08 in 0.25 in 6.70 in (1988)
Month to date precipitation 10.28 4.93  
Year to date precipitation 41.60 37.70  
Snow  
Snow 0.00 in - - ()
Month to date snowfall 0.0  
Since 1 June snowfall 0.0  
Since 1 July snowfall 0.0  
Snow Depth 0.00 in    
Sea Level Pressure  
Sea Level Pressure 30.09 in    
Wind  
Wind Speed 8 mph (SE)    
Max Wind Speed 24 mph    
Max Gust Speed 29 mph    
Visibility 10 miles    
Events Rain , Thunderstorm    
T = Trace of Precipitation, MM = Missing Value Source: NWS Daily Summary

Daily Weather History Graph

Daily Weather History Graph

Search for Another Location

Airport or City:

Astronomy

Aug. 20, 2019 Rise Set
Actual Time 6:54 AM EDT 7:52 PM EDT
Civil Twilight 6:30 AM EDT 8:16 PM EDT
Nautical Twilight 6:02 AM EDT 8:45 PM EDT
Astronomical Twilight 5:32 AM EDT 9:14 PM EDT
Moon 11:07 PM EDT 11:07 AM EDT
Length of Visible Light 13h 46m
Length of Day
12h 58m
Waning Gibbous, 78% of the Moon is Illuminated
Aug 20
Waning Gibbous
Aug 23
Last Quarter
Aug 30
New
Sep 5
First Quarter
Sep 14
Full

Hourly Weather History & Observations

Time (EDT) Temp. Heat Index Dew Point Humidity Pressure Visibility Wind Dir Wind Speed Gust Speed Precip Events Conditions
12:53 AM 79.0 °F - 72.0 °F 79% 30.09 in 10.0 mi Calm Calm - N/A   Partly Cloudy
1:53 AM 80.1 °F 83.8 °F 72.0 °F 76% 30.06 in 10.0 mi South 3.5 mph - N/A   Partly Cloudy
2:53 AM 79.0 °F - 72.0 °F 79% 30.06 in 10.0 mi Calm Calm - N/A   Partly Cloudy
3:53 AM 78.1 °F - 73.0 °F 84% 30.05 in 10.0 mi Calm Calm - N/A   Partly Cloudy
4:53 AM 79.0 °F - 73.9 °F 84% 30.05 in 10.0 mi East 3.5 mph - N/A   Partly Cloudy
5:53 AM 81.0 °F 85.8 °F 73.0 °F 77% 30.05 in 10.0 mi East 8.1 mph - N/A   Scattered Clouds
6:53 AM 81.0 °F 85.8 °F 73.0 °F 77% 30.07 in 10.0 mi ESE 6.9 mph - N/A   Scattered Clouds
7:34 AM 82.9 °F 88.8 °F 73.0 °F 72% 30.09 in 10.0 mi East 6.9 mph - N/A   Mostly Cloudy
7:53 AM 78.1 °F - 73.0 °F 84% 30.11 in 7.0 mi SSE 13.8 mph - 0.02 in Rain Light Rain
7:55 AM 77.0 °F - 73.0 °F 88% 30.11 in 4.0 mi South 18.4 mph 27.6 mph 0.00 in Rain Light Rain
8:10 AM 75.9 °F - 73.0 °F 91% 30.12 in 7.0 mi South 15.0 mph 21.9 mph 0.03 in Rain , Thunderstorm Light Thunderstorms and Rain
8:53 AM 77.0 °F - 72.0 °F 84% 30.14 in 10.0 mi SE 9.2 mph - 0.03 in Thunderstorm Thunderstorm
8:58 AM 75.9 °F - 72.0 °F 87% 30.13 in 10.0 mi ESE 11.5 mph - N/A   Mostly Cloudy
9:35 AM 77.0 °F - 73.0 °F 88% 30.12 in 10.0 mi ESE 4.6 mph - 0.01 in   Mostly Cloudy
9:53 AM 78.1 °F - 73.0 °F 84% 30.12 in 10.0 mi SE 5.8 mph - 0.01 in   Mostly Cloudy
10:53 AM 82.9 °F 88.0 °F 72.0 °F 69% 30.11 in 10.0 mi South 6.9 mph - N/A   Mostly Cloudy
11:53 AM 86.0 °F 93.0 °F 73.0 °F 65% 30.13 in 10.0 mi SE 10.4 mph - N/A   Scattered Clouds
12:53 PM 88.0 °F 95.6 °F 73.0 °F 61% 30.12 in 10.0 mi SE 10.4 mph - N/A   Scattered Clouds
1:53 PM 87.1 °F 94.5 °F 73.0 °F 63% 30.11 in 10.0 mi East 15.0 mph - N/A   Scattered Clouds
2:53 PM 87.1 °F 93.6 °F 72.0 °F 61% 30.09 in 10.0 mi SE 13.8 mph 20.7 mph N/A   Scattered Clouds
3:53 PM 88.0 °F 96.5 °F 73.9 °F 63% 30.06 in 10.0 mi ESE 13.8 mph - N/A   Scattered Clouds
4:53 PM 87.1 °F 95.4 °F 73.9 °F 65% 30.05 in 10.0 mi ESE 12.7 mph - N/A   Mostly Cloudy
5:53 PM 84.0 °F 91.9 °F 75.0 °F 74% 30.06 in 10.0 mi ENE 9.2 mph - 0.00 in Rain Light Rain
6:53 PM 84.9 °F 92.1 °F 73.9 °F 69% 30.07 in 10.0 mi ESE 9.2 mph - 0.00 in   Mostly Cloudy
7:53 PM 82.0 °F 89.4 °F 75.9 °F 82% 30.08 in 10.0 mi ESE 5.8 mph - 0.02 in   Mostly Cloudy
8:53 PM 82.0 °F 87.4 °F 73.0 °F 74% 30.10 in 10.0 mi ESE 9.2 mph - N/A   Scattered Clouds
9:53 PM 82.0 °F 86.7 °F 72.0 °F 71% 30.11 in 10.0 mi ESE 8.1 mph - N/A   Scattered Clouds
10:53 PM 82.0 °F 86.7 °F 72.0 °F 71% 30.11 in 10.0 mi SE 9.2 mph - N/A   Scattered Clouds
11:53 PM 82.0 °F 86.3 °F 71.1 °F 69% 30.10 in 10.0 mi ESE 8.1 mph - N/A   Scattered Clouds